This is the latest recevied weather packets stored in our database for station/object SQ4IXR-4. If no packets are shown the sender has not sent any weather packets the latest 10 day(s).
| Time | Temp. | Humidity | Pressure | Rain* | Wind** | Luminosity | Snow |
|---|---|---|---|---|---|---|---|
| 1777677898 | 10° C | 73% | 1028.7 hPa | - | - | - | - |
| 1777677075 | 10° C | 72% | 1028.7 hPa | - | - | - | - |
| 1777676252 | 10° C | 71% | 1028.7 hPa | - | - | - | - |
| 1777675429 | 10.56° C | 70% | 1028.6 hPa | - | - | - | - |
| 1777674607 | 10.56° C | 69% | 1028.6 hPa | - | - | - | - |
| 1777673784 | 10.56° C | 67% | 1028.6 hPa | - | - | - | - |
| 1777672962 | 11.11° C | 66% | 1028.7 hPa | - | - | - | - |
| 1777672139 | 11.11° C | 65% | 1028.6 hPa | - | - | - | - |
| 1777671317 | 11.11° C | 64% | 1028.6 hPa | - | - | - | - |
| 1777670494 | 11.67° C | 63% | 1028.5 hPa | - | - | - | - |
| 1777669672 | 11.67° C | 62% | 1028.5 hPa | - | - | - | - |
| 1777668849 | 11.67° C | 62% | 1028.4 hPa | - | - | - | - |
| 1777668026 | 11.67° C | 61% | 1028.4 hPa | - | - | - | - |
| 1777667203 | 11.67° C | 62% | 1028.4 hPa | - | - | - | - |
| 1777666381 | 12.22° C | 61% | 1028.3 hPa | - | - | - | - |
| 1777665557 | 12.22° C | 60% | 1028.3 hPa | - | - | - | - |
| 1777664735 | 12.78° C | 59% | 1028.4 hPa | - | - | - | - |
| 1777663914 | 12.78° C | 58% | 1028.4 hPa | - | - | - | - |
| 1777663089 | 12.78° C | 57% | 1028.3 hPa | - | - | - | - |
| 1777662262 | 12.78° C | 57% | 1028.1 hPa | - | - | - | - |
| 1777661439 | 12.78° C | 61% | 1028.1 hPa | - | - | - | - |
| 1777660617 | 12.78° C | 58% | 1028 hPa | - | - | - | - |
| 1777659795 | 13.33° C | 53% | 1027.9 hPa | - | - | - | - |
| 1777658975 | 14.44° C | 50% | 1027.9 hPa | - | - | - | - |
| 1777658152 | 15° C | 48% | 1027.6 hPa | - | - | - | - |
* Rain since midnight (hover to see other rain measurements)
** Current wind speed in m/s (hover to see current wind gust speed)